{"data":{"norad_id":57173,"intl_designator":"2023-091H","name":"2023-091H","alt_names":[],"object_type":"PAYLOAD","status":"ACTIVE","operator":null,"country":"CIS","launch_date":"2023-06-27","launch_site_code":"VOSTO","launch_vehicle":null,"mission":null,"orbit_class":"UNKNOWN","rcs_meters":null,"size_class":null,"mass_kg":null,"dimensions":null,"purposes":[],"wikipedia_slug":null,"has_3d_model":false,"image_url":null,"decayed_at":null,"tle_current":{"epoch":"2026-09-21T22:31:55.747488Z","epoch_age_seconds":78370,"freshness":"FRESH","line1":"1 57173U 23091H   26264.93883967  .00007930  00000+0  27163-3 0  9991","line2":"2 57173  97.4953 328.9887 0010609 127.0719 233.1493 15.30437234179093","mean_motion":15.30437234,"eccentricity":0.0010609,"inclination_deg":97.4953,"raan_deg":328.9887,"arg_perigee_deg":127.0719,"mean_anomaly_deg":233.1493,"bstar":0.00027163,"rev_number":17909,"period_min":94.090758379968,"perigee_km":467.23685312675,"apogee_km":481.7767927903,"semimajor_km":6852.6438229585,"source":"CELESTRAK","updated_at":"2026-09-22T09:00:26.073993Z"}}}